, AK

(GMT )
Tin City

Weather History for PATC - August, 2013

Change the Weather History Date:

Sunday, August 11, 2013

  Actual Average Record
Temperature  
Mean Temperature 42 °F -  
Max Temperature 43 °F 47 °F 73 °F (2014)
Min Temperature 41 °F 42 °F 37 °F (1996)
Degree Days  
Heating Degree Days 23    
Moisture  
Dew Point 41 °F    
Average Humidity 95    
Maximum Humidity 100    
Minimum Humidity 87    
Precipitation  
Precipitation 0.02 in - - ()
Sea Level Pressure  
Sea Level Pressure 29.95 in    
Wind  
Wind Speed 23 mph (NNE)    
Max Wind Speed 25 mph    
Max Gust Speed -    
Visibility 10 miles    
Events Rain    
Averages and records for this station are not official NWS values.
T = Trace of Precipitation, MM = Missing Value Source: NWS Daily Summary

Daily Weather History Graph

Daily Weather History Graph

Search for Another Location

Airport or City:

Trip Planner

Search our weather history database for the weather conditions in past years. The results will help you decide how hot, cold, wet, or windy it might be!

Date:

Astronomy

Aug. 11, 2013 Rise Set
Actual Time 6:40 AM AKDT 11:50 PM AKDT
Civil Twilight 5:21 AM AKDT 1:07 AM AKDT
Nautical Twilight Sun does not rise Sun does not rise
Astronomical Twilight Sun does not rise Sun does not rise
Moon 2:14 PM AKDT (8/11) 11:34 PM AKDT (8/11)
Length of Visible Light 19h 46m
Length of Day
17h 09m
Waxing Crescent, 23% of the Moon is Illuminated
Aug 11
Waxing Crescent
Aug 14
First Quarter
Aug 20
Full
Aug 28
Last Quarter
Sep 5
New

Hourly Weather History & Observations

Time (AKDT) Temp. Windchill Dew Point Humidity Pressure Visibility Wind Dir Wind Speed Gust Speed Precip Events Conditions
12:55 AM 42.6 °F 33.1 °F 42.1 °F 98% 29.87 in 10.0 mi NNE 24.2 mph - N/A   Overcast
1:55 AM 42.3 °F 32.6 °F 41.9 °F 99% 29.88 in 10.0 mi NNE 24.2 mph - N/A   Overcast
2:21 AM 42.8 °F 33.3 °F 41.0 °F 93% 29.88 in 10.0 mi NNE 24.2 mph - N/A   Overcast
2:55 AM 42.1 °F 32.8 °F 41.5 °F 98% 29.89 in 10.0 mi NNE 21.9 mph - N/A   Mostly Cloudy
3:55 AM 42.1 °F 32.6 °F 41.5 °F 98% 29.89 in 10.0 mi NNE 23.0 mph - N/A   Mostly Cloudy
4:21 AM 42.8 °F 33.1 °F 41.0 °F 93% 29.89 in 10.0 mi NNE 25.3 mph - N/A   Overcast
4:55 AM 41.9 °F 32.3 °F 41.5 °F 99% 29.90 in 10.0 mi NNE 23.0 mph - N/A   Overcast
5:55 AM 41.7 °F 32.1 °F 41.5 °F 99% 29.90 in 9.0 mi NNE 23.0 mph - N/A Rain Light Rain
6:41 AM 41.0 °F 31.4 °F 41.0 °F 100% 29.91 in 10.0 mi NNE 21.9 mph - N/A   Mostly Cloudy
6:55 AM 41.9 °F 32.3 °F 41.4 °F 98% 29.91 in 10.0 mi NNE 23.0 mph - N/A   Mostly Cloudy
7:55 AM 41.9 °F 32.1 °F 41.5 °F 99% 29.91 in 10.0 mi NNE 24.2 mph - N/A   Overcast
8:41 AM 41.0 °F 31.4 °F 41.0 °F 100% 29.91 in 6.0 mi NNE 21.9 mph - N/A Rain Light Rain Showers
8:55 AM 41.7 °F 32.3 °F 41.7 °F 100% 29.92 in 7.0 mi NNE 21.9 mph - N/A   Mostly Cloudy
9:01 AM 42.8 °F 33.8 °F 41.0 °F 93% 29.92 in 10.0 mi NNE 21.9 mph - N/A   Mostly Cloudy
9:21 AM 42.8 °F 33.3 °F 41.0 °F 93% 29.92 in 6.0 mi NNE 24.2 mph - N/A Rain Light Rain Showers
9:41 AM 42.8 °F 33.3 °F 41.0 °F 93% 29.92 in 10.0 mi NNE 24.2 mph - N/A   Overcast
9:55 AM 42.1 °F 32.3 °F 41.7 °F 99% 29.92 in 10.0 mi NNE 24.2 mph - N/A   Overcast
10:55 AM 42.3 °F 32.6 °F 41.0 °F 95% 29.93 in 10.0 mi NE 24.2 mph - N/A   Overcast
11:01 AM 42.8 °F 33.5 °F 41.0 °F 93% 29.93 in 10.0 mi NE 23.0 mph - N/A Rain Light Rain Showers
11:55 AM 42.3 °F 32.6 °F 41.5 °F 97% 29.94 in 10.0 mi NNE 24.2 mph - 0.00 in Rain Light Rain Showers
12:55 PM 42.8 °F 33.5 °F 41.9 °F 97% 29.95 in 10.0 mi NNE 23.0 mph - 0.00 in   Overcast
1:55 PM 42.8 °F 33.5 °F 41.5 °F 95% 29.96 in 10.0 mi NE 23.0 mph - N/A   Overcast
2:55 PM 43.2 °F 33.8 °F 41.5 °F 94% 29.96 in 10.0 mi NNE 24.2 mph - N/A   Overcast
3:55 PM 43.3 °F 34.2 °F 41.0 °F 91% 29.97 in 10.0 mi NNE 23.0 mph - N/A   Mostly Cloudy
4:55 PM 43.3 °F 33.8 °F 40.8 °F 91% 29.98 in 10.0 mi NNE 25.3 mph - N/A   Mostly Cloudy
6:55 PM 42.4 °F 33.1 °F 41.0 °F 95% 29.99 in 10.0 mi NNE 23.0 mph - N/A   Overcast
7:55 PM 42.3 °F 33.3 °F 40.6 °F 94% 30.00 in 10.0 mi NNE 20.7 mph - N/A   Overcast
8:55 PM 42.4 °F 33.3 °F 40.1 °F 91% 30.01 in 10.0 mi NNE 21.9 mph - N/A   Overcast
9:55 PM 42.4 °F 33.5 °F 39.7 °F 90% 30.02 in 10.0 mi NE 20.7 mph - N/A   Mostly Cloudy
10:21 PM 42.8 °F 34.3 °F 39.2 °F 87% 30.02 in 10.0 mi NE 19.6 mph - N/A   Mostly Cloudy
10:41 PM 42.8 °F 34.3 °F 39.2 °F 87% 30.02 in 10.0 mi NNE 19.6 mph - N/A   Mostly Cloudy
10:55 PM 42.1 °F 33.9 °F 39.9 °F 92% 30.03 in 10.0 mi NNE 17.3 mph - N/A   Overcast
11:21 PM 42.8 °F 34.3 °F 41.0 °F 93% 30.03 in 10.0 mi NNE 19.6 mph - N/A Rain Light Rain
11:41 PM 42.8 °F 34.8 °F 41.0 °F 93% 30.04 in 10.0 mi NNE 17.3 mph - N/A   Overcast
11:55 PM 41.9 °F 33.4 °F 40.1 °F 93% 30.04 in 10.0 mi NNE 18.4 mph - N/A   Overcast